GW4987 Weather Reports


time (UTC)temp
C
wind
direction
speed
KPH
gust
KPH
rain 1hr
cm
rain 24hr
cm
rain mn
cm
humidity
%
barometer
mb
20260904112504 17 199 14.5 20.9 0.00 0.00 0.00 74 1020.2
20260904112004 17 185 4.8 9.7 0.00 0.00 0.00 74 1019.9
20260904111503 17 205 12.9 14.5 0.00 0.00 0.00 75 1020.0
20260904111003 17 147 6.4 12.9 0.00 0.00 0.00 74 1020.1
20260904110504 17 155 8.0 17.7 0.00 0.00 0.00 74 1019.8
20260904104504 17 166 17.7 19.3 0.00 0.00 0.00 73 1019.7
20260904104004 17 182 4.8 16.1 0.00 0.00 0.00 73 1019.6
20260904103504 18 144 16.1 19.3 0.00 0.00 0.00 73 1019.5
20260904103003 18 145 14.5 17.7 0.00 0.00 0.00 73 1019.8
20260904102503 18 180 11.3 12.9 0.00 0.00 0.00 73 1019.8
20260904101004 18 148 9.7 14.5 0.00 0.00 0.00 70 1019.6
20260904100504 18 194 16.1 24.1 0.00 0.00 0.00 69 1019.6
20260904100005 18 166 6.4 11.3 0.00 0.00 0.00 68 1019.6
20260904095503 18 134 6.4 9.7 0.00 0.00 0.00 68 1019.6
20260904095003 18 204 6.4 20.9 0.00 0.00 0.00 68 1019.4
20260904094504 18 116 8.0 11.3 0.00 0.00 0.00 68 1019.4
20260904094003 18 162 8.0 8.0 0.00 0.00 0.00 68 1019.4
20260904093504 18 168 9.7 9.7 0.00 0.00 0.00 69 1019.4
20260904093004 18 158 8.0 9.7 0.00 0.00 0.00 69 1019.7
20260904092503 18 147 9.7 17.7 0.00 0.00 0.00 68 1019.7
20260904092004 18 184 8.0 8.0 0.00 0.00 0.00 68 1019.5
20260904091504 18 194 8.0 16.1 0.00 0.00 0.00 68 1019.6
20260904091004 18 120 9.7 9.7 0.00 0.00 0.00 69 1019.6
20260904090504 18 151 3.2 6.4 0.00 0.00 0.00 68 1019.5
20260904090004 18 184 4.8 4.8 0.00 0.00 0.00 67 1019.5
20260904085503 18 113 6.4 6.4 0.00 0.00 0.00 68 1019.6
20260904085003 18 128 6.4 6.4 0.00 0.00 0.00 67 1019.7
20260904084503 18 149 3.2 8.0 0.00 0.00 0.00 66 1019.5
20260904084003 18 152 8.0 8.0 0.00 0.00 0.00 64 1019.6
20260904083503 19 139 4.8 6.4 0.00 0.00 0.00 63 1019.8
20260904081503 19 212 3.2 8.0 0.00 0.00 0.00 57 1019.8
20260904081003 20 198 9.7 11.3 0.00 0.00 0.00 55 1019.9
20260904080503 19 219 6.4 11.3 0.00 0.00 0.00 55 1019.7
20260904080004 19 167 3.2 6.4 0.00 0.00 0.00 55 1019.8
20260904075504 19 186 8.0 12.9 0.00 0.00 0.00 55 1019.8
20260904075004 19 236 4.8 8.0 0.00 0.00 0.00 56 1019.8
20260904074504 19 207 3.2 8.0 0.00 0.00 0.00 56 1019.8
20260904074003 19 185 4.8 6.4 0.00 0.00 0.00 57 1019.9
20260904073504 19 218 11.3 11.3 0.00 0.00 0.00 58 1019.9
20260904073003 19 194 4.8 8.0 0.00 0.00 0.00 58 1020.0
20260904072503 19 264 4.8 4.8 0.00 0.00 0.00 58 1019.9
20260904072004 19 195 3.2 3.2 0.00 0.00 0.00 58 1019.9
20260904071503 19 246 0.0 3.2 0.00 0.00 0.00 57 1019.8
20260904071003 19 144 3.2 3.2 0.00 0.00 0.00 57 1019.8
20260904070504 20 234 4.8 4.8 0.00 0.00 0.00 53 1019.8
20260904070004 20 276 6.4 8.0 0.00 0.00 0.00 53 1019.9
20260904065503 20 256 6.4 6.4 0.00 0.00 0.00 51 1019.9
20260904065004 20 221 4.8 9.7 0.00 0.00 0.00 51 1019.6
20260904063003 20 208 8.0 8.0 0.00 0.00 0.00 50 1020.0
20260904062503 20 190 8.0 11.3 0.00 0.00 0.00 50 1019.8
20260904062004 20 195 9.7 12.9 0.00 0.00 0.00 50 1019.8
20260904061503 20 184 4.8 11.3 0.00 0.00 0.00 50 1019.8
20260904061004 20 203 8.0 14.5 0.00 0.00 0.00 49 1019.8
20260904060504 20 222 11.3 12.9 0.00 0.00 0.00 50 1019.9
20260904060003 20 207 11.3 12.9 0.00 0.00 0.00 52 1019.8
20260904055503 20 226 11.3 11.3 0.00 0.00 0.00 56 1019.8
20260904055003 20 218 6.4 12.9 0.00 0.00 0.00 61 1019.8
20260904054504 20 204 4.8 12.9 0.00 0.00 0.00 62 1019.7
20260904054004 21 233 6.4 12.9 0.00 0.00 0.00 62 1019.8
20260904053504 21 186 6.4 16.1 0.00 0.00 0.00 62 1019.6
20260904053004 21 260 12.9 27.4 0.00 0.00 0.00 62 1019.8
20260904052504 21 187 22.5 24.1 0.00 0.00 0.00 62 1019.6
20260904052004 21 193 11.3 25.7 0.00 0.00 0.00 62 1019.7
20260904044504 21 216 11.3 12.9 0.00 0.00 0.00 57 1019.9
20260904044004 21 211 8.0 8.0 0.00 0.00 0.00 55 1019.7
20260904043504 21 185 8.0 11.3 0.00 0.00 0.00 55 1019.8
20260904043004 21 115 4.8 12.9 0.00 0.00 0.00 54 1019.9
20260904042503 21 126 16.1 16.1 0.00 0.00 0.00 54 1019.7
20260904042004 22 183 8.0 16.1 0.00 0.00 0.00 53 1019.7
20260904041504 22 209 16.1 16.1 0.00 0.00 0.00 53 1019.7
20260904041004 22 180 4.8 20.9 0.00 0.00 0.00 53 1019.5
20260904040504 22 177 11.3 17.7 0.00 0.00 0.00 52 1019.5
20260904040004 22 285 8.0 17.7 0.00 0.00 0.00 51 1019.5
20260904035503 22 220 9.7 20.9 0.00 0.00 0.00 51 1019.6
20260904033503 22 189 8.0 19.3 0.00 0.00 0.00 49 1019.3
20260904033004 22 204 16.1 22.5 0.00 0.00 0.00 49 1019.6
20260904032504 22 191 16.1 29.0 0.00 0.00 0.00 49 1019.6
20260904032003 22 211 24.1 27.4 0.00 0.00 0.00 48 1019.3
20260904031503 22 180 20.9 29.0 0.00 0.00 0.00 49 1019.4
20260904031004 22 226 16.1 25.7 0.00 0.00 0.00 49 1019.3
20260904030503 22 191 14.5 19.3 0.00 0.00 0.00 49 1019.3
20260904030004 22 185 12.9 17.7 0.00 0.00 0.00 49 1019.5
20260904025504 22 218 14.5 24.1 0.00 0.00 0.00 49 1019.5
20260904025004 22 199 12.9 14.5 0.00 0.00 0.00 50 1019.3
20260904024504 22 199 9.7 20.9 0.00 0.00 0.00 50 1019.2
20260904024004 22 197 14.5 24.1 0.00 0.00 0.00 50 1019.3
20260904023504 22 218 12.9 22.5 0.00 0.00 0.00 50 1019.3
20260904023004 22 218 9.7 17.7 0.00 0.00 0.00 51 1019.0
20260904022504 22 217 17.7 17.7 0.00 0.00 0.00 51 1019.3
20260904022003 22 188 8.0 14.5 0.00 0.00 0.00 51 1019.2
20260904021503 22 184 12.9 16.1 0.00 0.00 0.00 51 1019.0
20260904021004 22 175 6.4 19.3 0.00 0.00 0.00 50 1019.2
20260904015004 23 198 8.0 19.3 0.00 0.00 0.00 48 1019.0
20260904014504 23 206 25.7 27.4 0.00 0.00 0.00 47 1019.0
20260904014004 23 213 19.3 33.8 0.00 0.00 0.00 46 1019.0
20260904012004 24 206 14.5 17.7 0.00 0.00 0.00 45 1019.0
20260904011504 24 163 8.0 27.4 0.00 0.00 0.00 45 1018.8
20260904011004 24 182 6.4 30.6 0.00 0.00 0.00 45 1018.9
20260904010504 24 198 14.5 29.0 0.00 0.00 0.00 45 1019.2
20260904010004 24 200 32.2 40.2 0.00 0.00 0.00 44 1019.0
20260904005504 24 209 27.4 35.4 0.00 0.00 0.00 43 1019.0
20260904005003 24 180 20.9 40.2 0.00 0.00 0.00 44 1019.2
20260904004503 25 203 12.9 32.2 0.00 0.00 0.00 42 1019.0
20260904004003 25 167 9.7 22.5 0.00 0.00 0.00 45 1019.3
20260904003504 25 181 19.3 24.1 0.00 0.00 0.00 45 1019.2
20260904003004 25 185 16.1 41.8 0.00 0.00 0.00 45 1019.4
20260904002504 25 228 25.7 25.7 0.00 0.00 0.00 44 1019.2
20260904002004 25 218 17.7 41.8 0.00 0.00 0.00 45 1019.4
20260904001504 25 190 12.9 22.5 0.00 0.00 0.00 43 1019.3
20260904001004 25 205 4.8 25.7 0.00 0.00 0.00 43 1019.3
20260903235004 25 162 8.0 30.6 0.00 0.00 0.00 43 1019.2
20260903234504 25 216 12.9 19.3 0.00 0.00 0.00 44 1019.4
20260903234004 25 183 24.1 25.7 0.00 0.00 0.00 43 1019.3
20260903233503 25 186 19.3 35.4 0.00 0.00 0.00 44 1019.0
20260903233003 25 154 16.1 22.5 0.00 0.00 0.00 44 1019.3
20260903232503 25 165 11.3 30.6 0.00 0.00 0.00 44 1019.2
20260903232004 25 173 16.1 33.8 0.00 0.00 0.00 43 1019.3
20260903231504 26 155 12.9 30.6 0.00 0.00 0.00 42 1019.4
20260903231004 26 212 16.1 17.7 0.00 0.00 0.00 40 1019.4
20260903230504 26 136 16.1 29.0 0.00 0.00 0.00 41 1019.4
20260903230004 25 179 14.5 27.4 0.00 0.00 0.00 43 1019.6
20260903225504 25 180 17.7 25.7 0.00 0.00 0.00 44 1019.7
20260903225003 25 220 16.1 27.4 0.00 0.00 0.00 43 1019.6
20260903224503 24 214 12.9 16.1 0.00 0.00 0.00 44 1019.7
20260903224004 24 207 12.9 38.6 0.00 0.00 0.00 44 1019.7
20260903223503 25 238 14.5 19.3 0.00 0.00 0.00 44 1019.8
20260903223004 24 191 17.7 33.8 0.00 0.00 0.00 45 1019.9
20260903222503 24 177 9.7 30.6 0.00 0.00 0.00 45 1019.8
20260903222003 25 203 22.5 30.6 0.00 0.00 0.00 44 1019.8
20260903221504 25 194 11.3 30.6 0.00 0.00 0.00 45 1019.9
20260903221003 24 211 12.9 25.7 0.00 0.00 0.00 45 1020.0
20260903220503 25 167 9.7 30.6 0.00 0.00 0.00 43 1020.1
20260903220004 25 185 12.9 22.5 0.00 0.00 0.00 45 1020.1
20260903215504 25 184 11.3 25.7 0.00 0.00 0.00 45 1020.1
20260903215004 25 119 14.5 17.7 0.00 0.00 0.00 46 1020.2
20260903214504 26 136 30.6 37.0 0.00 0.00 0.00 43 1020.2
20260903212503 24 213 14.5 20.9 0.00 0.00 0.00 47 1020.3
20260903212003 25 168 12.9 32.2 0.00 0.00 0.00 43 1020.3
20260903211503 25 131 32.2 35.4 0.00 0.00 0.00 42 1020.4
20260903211003 24 155 16.1 22.5 0.00 0.00 0.00 45 1020.5
20260903210503 25 218 9.7 19.3 0.00 0.00 0.00 44 1020.2
20260903210004 25 225 17.7 32.2 0.00 0.00 0.00 45 1020.4
20260903205503 24 189 17.7 30.6 0.00 0.00 0.00 46 1020.5
20260903205003 24 209 29.0 46.7 0.00 0.00 0.00 44 1020.4
20260903204504 25 204 14.5 35.4 0.00 0.00 0.00 42 1020.4
20260903204004 25 248 20.9 37.0 0.00 0.00 0.00 41 1020.6
20260903203504 25 180 14.5 32.2 0.00 0.00 0.00 43 1020.4
20260903203004 24 186 16.1 40.2 0.00 0.00 0.00 44 1020.6
20260903202503 25 221 40.2 41.8 0.00 0.00 0.00 42 1020.5
20260903202003 25 185 20.9 35.4 0.00 0.00 0.00 41 1020.6
20260903201503 24 154 4.8 30.6 0.00 0.00 0.00 46 1020.6
20260903201003 24 210 11.3 35.4 0.00 0.00 0.00 45 1020.6
20260903200503 24 180 16.1 22.5 0.00 0.00 0.00 45 1020.5
20260903200003 25 228 3.2 16.1 0.00 0.00 0.00 44 1020.5
20260903195503 24 191 14.5 30.6 0.00 0.00 0.00 47 1020.7
20260903195004 24 180 17.7 33.8 0.00 0.00 0.00 46 1020.8
20260903194504 24 149 16.1 24.1 0.00 0.00 0.00 46 1020.7
20260903194003 25 162 11.3 24.1 0.00 0.00 0.00 45 1020.9
20260903193504 25 212 11.3 20.9 0.00 0.00 0.00 45 1020.9
20260903193004 23 234 17.7 30.6 0.00 0.00 0.00 47 1020.8
20260903192504 24 243 22.5 29.0 0.00 0.00 0.00 45 1020.8
20260903192004 25 193 12.9 32.2 0.00 0.00 0.00 43 1020.9
20260903190003 25 105 8.0 24.1 0.00 0.00 0.00 44 1021.1
20260903185503 24 145 12.9 27.4 0.00 0.00 0.00 44 1021.3
20260903185004 25 165 9.7 24.1 0.00 0.00 0.00 44 1021.4
20260903184504 25 146 9.7 14.5 0.00 0.00 0.00 44 1021.4
20260903184004 24 182 25.7 30.6 0.00 0.00 0.00 44 1021.6
20260903183504 24 231 27.4 38.6 0.00 0.00 0.00 44 1021.4
20260903181504 25 233 8.0 33.8 0.00 0.00 0.00 42 1021.7
20260903181004 24 200 19.3 35.4 0.00 0.00 0.00 42 1021.6
20260903180504 24 136 27.4 38.6 0.00 0.00 0.00 42 1021.7
20260903180003 25 117 14.5 22.5 0.00 0.00 0.00 41 1021.5
20260903175504 24 145 16.1 20.9 0.00 0.00 0.00 41 1021.8
20260903175003 24 126 4.8 32.2 0.00 0.00 0.00 42 1022.0
20260903174503 25 143 12.9 29.0 0.00 0.00 0.00 41 1021.8
20260903174004 23 171 11.3 20.9 0.00 0.00 0.00 42 1021.8
20260903173504 23 193 12.9 37.0 0.00 0.00 0.00 43 1021.9
20260903173004 23 205 19.3 33.8 0.00 0.00 0.00 43 1021.8
20260903172504 23 154 17.7 30.6 0.00 0.00 0.00 42 1021.8
20260903172004 23 153 12.9 32.2 0.00 0.00 0.00 44 1021.7
20260903171504 23 156 14.5 24.1 0.00 0.00 0.00 44 1021.8
20260903171004 23 207 24.1 38.6 0.00 0.00 0.00 44 1021.9
20260903170504 23 169 17.7 29.0 0.00 0.00 0.00 43 1021.8
20260903170004 24 199 19.3 20.9 0.00 0.00 0.00 42 1021.7
20260903165503 23 151 11.3 19.3 0.00 0.00 0.00 43 1021.7
20260903165003 23 191 9.7 25.7 0.00 0.00 0.00 44 1021.8
20260903164503 22 197 22.5 30.6 0.00 0.00 0.00 45 1021.9
20260903164004 22 185 25.7 37.0 0.00 0.00 0.00 45 1021.8
20260903163504 23 181 16.1 32.2 0.00 0.00 0.00 44 1021.6
20260903163004 22 207 9.7 27.4 0.00 0.00 0.00 45 1021.6
20260903162504 23 144 16.1 27.4 0.00 0.00 0.00 43 1021.7
20260903162004 23 139 9.7 16.1 0.00 0.00 0.00 44 1021.7
20260903161504 22 196 16.1 17.7 0.00 0.00 0.00 44 1021.7
20260903161003 22 228 16.1 22.5 0.00 0.00 0.00 44 1021.7
20260903160503 22 213 20.9 27.4 0.00 0.00 0.00 45 1021.6
20260903160005 22 190 12.9 19.3 0.00 0.00 0.00 44 1021.7
20260903154504 22 111 12.9 16.1 0.00 0.00 0.00 43 1021.8
20260903154004 22 139 14.5 25.7 0.00 0.00 0.00 44 1021.6
20260903153504 22 177 4.8 9.7 0.00 0.00 0.00 44 1021.6
20260903153004 22 124 4.8 4.8 0.00 0.00 0.00 45 1021.7
20260903152503 22 194 22.5 24.1 0.00 0.00 0.00 44 1021.8
20260903152004 21 127 12.9 14.5 0.00 0.00 0.00 45 1021.6
20260903151503 21 169 4.8 6.4 0.00 0.00 0.00 46 1021.5
20260903151003 21 169 4.8 6.4 0.00 0.00 0.00 46 1021.6
20260903150504 21 226 12.9 25.7 0.00 0.00 0.00 45 1021.6
20260903150004 21 179 11.3 24.1 0.00 0.00 0.00 46 1021.7
20260903145504 21 182 11.3 11.3 0.00 0.00 0.00 47 1021.6
20260903145004 21 163 8.0 8.0 0.00 0.00 0.00 46 1021.6
20260903144504 21 162 4.8 8.0 0.00 0.00 0.00 47 1021.7
20260903144004 20 172 16.1 27.4 0.00 0.00 0.00 48 1021.6
20260903143504 20 172 16.1 27.4 0.00 0.00 0.00 48 1021.6
20260903143004 20 172 16.1 27.4 0.00 0.00 0.00 48 1021.6
20260903142503 20 164 14.5 27.4 0.00 0.00 0.00 48 1021.5
20260903142004 18 196 8.0 11.3 0.00 0.00 0.00 53 1021.6
20260903141503 18 196 8.0 11.3 0.00 0.00 0.00 53 1021.6
20260903141003 18 196 8.0 11.3 0.00 0.00 0.00 53 1021.6
20260903140503 18 196 8.0 11.3 0.00 0.00 0.00 53 1021.5
20260903140003 18 196 8.0 11.3 0.00 0.00 0.00 53 1021.4
20260903135503 18 196 8.0 11.3 0.00 0.00 0.00 53 1021.4
20260903135004 18 196 8.0 11.3 0.00 0.00 0.00 53 1021.5
20260903133004 17 180 6.4 8.0 0.00 0.00 0.00 51 1021.1
20260903132504 17 180 6.4 8.0 0.00 0.00 0.00 51 1021.3
20260903132004 17 180 6.4 8.0 0.00 0.00 0.00 51 1021.1
20260903131504 17 180 6.4 8.0 0.00 0.00 0.00 51 1020.9
20260903131004 17 180 6.4 8.0 0.00 0.00 0.00 51 1020.8
20260903130504 17 180 6.4 8.0 0.00 0.00 0.00 51 1020.9
20260903130003 17 180 6.4 8.0 0.00 0.00 0.00 51 1020.9
20260903125503 17 186 3.2 4.8 0.00 0.00 0.00 46 1020.8
20260903125004 17 186 3.2 4.8 0.00 0.00 0.00 46 1020.7
20260903124503 17 186 3.2 4.8 0.00 0.00 0.00 46 1020.9
20260903124003 17 186 3.2 4.8 0.00 0.00 0.00 46 1020.8
20260903123504 17 186 3.2 4.8 0.00 0.00 0.00 46 1020.8
20260903123004 17 186 3.2 4.8 0.00 0.00 0.00 46 1020.9
20260903122504 17 186 3.2 4.8 0.00 0.00 0.00 46 1020.8
20260903122004 17 186 3.2 4.8 0.00 0.00 0.00 46 1020.9
20260903121504 17 148 3.2 4.8 0.00 0.00 0.00 45 1020.8
20260903121004 18 129 8.0 8.0 0.00 0.00 0.00 44 1020.8
20260903120504 18 206 6.4 6.4 0.00 0.00 0.00 46 1020.9
20260903120004 18 206 6.4 6.4 0.00 0.00 0.00 46 1020.8
20260903115503 18 206 6.4 6.4 0.00 0.00 0.00 46 1020.5
20260903113504 18 206 6.4 6.4 0.00 0.00 0.00 46 1020.9
20260903113004 18 206 6.4 6.4 0.00 0.00 0.00 46 1020.8